Year,Month,Day,Hour,Minute,Value (Times are PST for temperature in C)
2017,08,10,00,00,16.40
2017,08,10,00,01,16.30
2017,08,10,00,02,16.30
2017,08,10,00,03,16.20
2017,08,10,00,04,16.20
2017,08,10,00,05,16.20
2017,08,10,00,06,16.10
2017,08,10,00,07,16.10
2017,08,10,00,08,16.10
2017,08,10,00,09,16.00
2017,08,10,00,10,15.90
2017,08,10,00,11,15.90
2017,08,10,00,12,15.90
2017,08,10,00,13,15.80
2017,08,10,00,14,15.80
2017,08,10,00,15,15.80
2017,08,10,00,16,15.80
2017,08,10,00,17,15.80
2017,08,10,00,18,15.80
2017,08,10,00,19,15.80
2017,08,10,00,20,15.80
2017,08,10,00,21,15.80
2017,08,10,00,22,15.80
2017,08,10,00,23,15.80
2017,08,10,00,24,15.80
2017,08,10,00,25,15.80
2017,08,10,00,26,15.80
2017,08,10,00,27,15.80
2017,08,10,00,28,15.80
2017,08,10,00,29,15.80
2017,08,10,00,30,15.80
2017,08,10,00,31,15.80
2017,08,10,00,32,15.80
2017,08,10,00,33,15.80
2017,08,10,00,34,15.80
2017,08,10,00,35,15.80
2017,08,10,00,36,15.80
2017,08,10,00,37,15.80
2017,08,10,00,38,15.90
2017,08,10,00,39,15.90
2017,08,10,00,40,15.90
2017,08,10,00,41,15.90
2017,08,10,00,42,15.90
2017,08,10,00,43,15.80
2017,08,10,00,44,15.80
2017,08,10,00,45,15.80
2017,08,10,00,46,15.80
2017,08,10,00,47,15.80
2017,08,10,00,48,15.80
2017,08,10,00,49,15.80
2017,08,10,00,50,15.80
2017,08,10,00,51,15.80
2017,08,10,00,52,15.80
2017,08,10,00,53,15.80
2017,08,10,00,54,15.80
2017,08,10,00,55,15.70
2017,08,10,00,56,15.70
2017,08,10,00,57,15.70
2017,08,10,00,58,15.70
2017,08,10,00,59,15.70
2017,08,10,01,00,15.70
2017,08,10,01,01,15.70
2017,08,10,01,02,15.70
2017,08,10,01,03,15.70
2017,08,10,01,04,15.70
2017,08,10,01,05,15.70
2017,08,10,01,06,15.70
2017,08,10,01,07,15.70
2017,08,10,01,08,15.70
2017,08,10,01,09,15.70
2017,08,10,01,10,15.70
2017,08,10,01,11,15.70
2017,08,10,01,12,15.80
2017,08,10,01,13,15.80
2017,08,10,01,14,15.80
2017,08,10,01,15,15.80
2017,08,10,01,16,15.80
2017,08,10,01,17,15.80
2017,08,10,01,18,15.80
2017,08,10,01,19,15.80
2017,08,10,01,20,15.80
2017,08,10,01,21,15.80
2017,08,10,01,22,15.80
2017,08,10,01,23,15.80
2017,08,10,01,24,15.80
2017,08,10,01,25,15.80
2017,08,10,01,26,15.80
2017,08,10,01,27,15.80
2017,08,10,01,28,15.80
2017,08,10,01,29,15.80
2017,08,10,01,30,15.80
2017,08,10,01,31,15.80
2017,08,10,01,32,15.80
2017,08,10,01,33,15.80
2017,08,10,01,34,15.80
2017,08,10,01,35,15.80
2017,08,10,01,36,15.80
2017,08,10,01,37,15.90
2017,08,10,01,38,15.90
2017,08,10,01,39,15.90
2017,08,10,01,40,15.90
2017,08,10,01,41,15.90
2017,08,10,01,42,15.90
2017,08,10,01,43,15.90
2017,08,10,01,44,15.90
2017,08,10,01,45,15.90
2017,08,10,01,46,15.90
2017,08,10,01,47,15.90
2017,08,10,01,48,15.90
2017,08,10,01,49,15.90
2017,08,10,01,50,15.90
2017,08,10,01,51,15.90
2017,08,10,01,52,15.90
2017,08,10,01,53,15.90
2017,08,10,01,54,15.90
2017,08,10,01,55,15.90
2017,08,10,01,56,15.90
2017,08,10,01,57,15.90
2017,08,10,01,58,15.80
2017,08,10,01,59,15.80
2017,08,10,02,00,15.80
2017,08,10,02,01,15.80
2017,08,10,02,02,15.80
2017,08,10,02,03,15.80
2017,08,10,02,04,15.80
2017,08,10,02,05,15.80
2017,08,10,02,06,15.80
2017,08,10,02,07,15.80
2017,08,10,02,08,15.80
2017,08,10,02,09,15.80
2017,08,10,02,10,15.80
2017,08,10,02,11,15.70
2017,08,10,02,12,15.70
2017,08,10,02,13,15.70
2017,08,10,02,14,15.70
2017,08,10,02,15,15.70
2017,08,10,02,16,15.60
2017,08,10,02,17,15.60
2017,08,10,02,18,15.50
2017,08,10,02,19,15.50
2017,08,10,02,20,15.40
2017,08,10,02,21,15.40
2017,08,10,02,22,15.40
2017,08,10,02,23,15.30
2017,08,10,02,24,15.30
2017,08,10,02,25,15.20
2017,08,10,02,26,15.20
2017,08,10,02,27,15.20
2017,08,10,02,28,15.20
2017,08,10,02,29,15.10
2017,08,10,02,30,15.10
2017,08,10,02,31,15.10
2017,08,10,02,32,15.10
2017,08,10,02,33,15.00
2017,08,10,02,34,15.00
2017,08,10,02,35,15.00
2017,08,10,02,36,14.90
2017,08,10,02,37,14.90
2017,08,10,02,38,14.90
2017,08,10,02,39,14.90
2017,08,10,02,40,14.90
2017,08,10,02,41,14.80
2017,08,10,02,42,14.80
2017,08,10,02,43,14.80
2017,08,10,02,44,14.80
2017,08,10,02,45,14.80
2017,08,10,02,46,14.80
2017,08,10,02,47,14.80
2017,08,10,02,48,14.80
2017,08,10,02,49,14.80
2017,08,10,02,50,14.80
2017,08,10,02,51,14.80
2017,08,10,02,52,14.80
2017,08,10,02,53,14.70
2017,08,10,02,54,14.70
2017,08,10,02,55,14.70
2017,08,10,02,56,14.70
2017,08,10,02,57,14.70
2017,08,10,02,58,14.70
2017,08,10,02,59,14.70
2017,08,10,03,00,14.70
2017,08,10,03,01,14.70
2017,08,10,03,02,14.70
2017,08,10,03,03,14.70
2017,08,10,03,04,14.70
2017,08,10,03,05,14.60
2017,08,10,03,06,14.60
2017,08,10,03,07,14.60
2017,08,10,03,08,14.60
2017,08,10,03,09,14.60
2017,08,10,03,10,14.60
2017,08,10,03,11,14.50
2017,08,10,03,12,14.50
2017,08,10,03,13,14.50
2017,08,10,03,14,14.50
2017,08,10,03,15,14.50
2017,08,10,03,16,14.40
2017,08,10,03,17,14.40
2017,08,10,03,18,14.40
2017,08,10,03,19,14.40
2017,08,10,03,20,14.40
2017,08,10,03,21,14.30
2017,08,10,03,22,14.30
2017,08,10,03,23,14.30
2017,08,10,03,24,14.30
2017,08,10,03,25,14.30
2017,08,10,03,26,14.30
2017,08,10,03,27,14.30
2017,08,10,03,28,14.20
2017,08,10,03,29,14.20
2017,08,10,03,30,14.20
2017,08,10,03,31,14.20
2017,08,10,03,32,14.20
2017,08,10,03,33,14.20
2017,08,10,03,34,14.20
2017,08,10,03,35,14.20
2017,08,10,03,36,14.20
2017,08,10,03,37,14.20
2017,08,10,03,38,14.20
2017,08,10,03,39,14.20
2017,08,10,03,40,14.10
2017,08,10,03,41,14.10
2017,08,10,03,42,14.10
2017,08,10,03,43,14.10
2017,08,10,03,44,14.10
2017,08,10,03,45,14.10
2017,08,10,03,46,14.10
2017,08,10,03,47,14.10
2017,08,10,03,48,14.10
2017,08,10,03,49,14.10
2017,08,10,03,50,14.10
2017,08,10,03,51,14.10
2017,08,10,03,52,14.10
2017,08,10,03,53,14.20
2017,08,10,03,54,14.20
2017,08,10,03,55,14.20
2017,08,10,03,56,14.30
2017,08,10,03,57,14.30
2017,08,10,03,58,14.40
2017,08,10,03,59,14.50
2017,08,10,04,00,14.50
2017,08,10,04,01,14.50
2017,08,10,04,02,14.50
2017,08,10,04,03,14.50
2017,08,10,04,04,14.50
2017,08,10,04,05,14.50
2017,08,10,04,06,14.50
2017,08,10,04,07,14.40
2017,08,10,04,08,14.40
2017,08,10,04,09,14.50
2017,08,10,04,10,14.50
2017,08,10,04,11,14.60
2017,08,10,04,12,14.70
2017,08,10,04,13,14.70
2017,08,10,04,14,14.80
2017,08,10,04,15,14.80
2017,08,10,04,16,14.90
2017,08,10,04,17,15.00
2017,08,10,04,18,15.10
2017,08,10,04,19,15.20
2017,08,10,04,20,15.20
2017,08,10,04,21,15.30
2017,08,10,04,22,15.30
2017,08,10,04,23,15.40
2017,08,10,04,24,15.40
2017,08,10,04,25,15.40
2017,08,10,04,26,15.50
2017,08,10,04,27,15.50
2017,08,10,04,28,15.50
2017,08,10,04,29,15.50
2017,08,10,04,30,15.50
2017,08,10,04,31,15.50
2017,08,10,04,32,15.60
2017,08,10,04,33,15.60
2017,08,10,04,34,15.60
2017,08,10,04,35,15.60
2017,08,10,04,36,15.60
2017,08,10,04,37,15.60
2017,08,10,04,38,15.60
2017,08,10,04,39,15.50
2017,08,10,04,40,15.50
2017,08,10,04,41,15.50
2017,08,10,04,42,15.50
2017,08,10,04,43,15.50
2017,08,10,04,44,15.60
2017,08,10,04,45,15.60
2017,08,10,04,46,15.60
2017,08,10,04,47,15.60
2017,08,10,04,48,15.60
2017,08,10,04,49,15.50
2017,08,10,04,50,15.50
2017,08,10,04,51,15.50
2017,08,10,04,52,15.50
2017,08,10,04,53,15.50
2017,08,10,04,54,15.50
2017,08,10,04,55,15.50
2017,08,10,04,56,15.50
2017,08,10,04,57,15.50
2017,08,10,04,58,15.50
2017,08,10,04,59,15.50
2017,08,10,05,00,15.50
2017,08,10,05,01,15.50
2017,08,10,05,02,15.50
2017,08,10,05,03,15.50
2017,08,10,05,04,15.50
2017,08,10,05,05,15.50
2017,08,10,05,06,15.50
2017,08,10,05,07,15.50
2017,08,10,05,08,15.50
2017,08,10,05,09,15.50
2017,08,10,05,10,15.50
2017,08,10,05,11,15.50
2017,08,10,05,12,15.50
2017,08,10,05,13,15.40
2017,08,10,05,14,15.40
2017,08,10,05,15,15.40
2017,08,10,05,16,15.40
2017,08,10,05,17,15.30
2017,08,10,05,18,15.30
2017,08,10,05,19,15.20
2017,08,10,05,20,15.20
2017,08,10,05,21,15.10
2017,08,10,05,22,15.00
2017,08,10,05,23,15.00
2017,08,10,05,24,14.90
2017,08,10,05,25,14.90
2017,08,10,05,26,14.90
2017,08,10,05,27,14.80
2017,08,10,05,28,14.80
2017,08,10,05,29,14.80
2017,08,10,05,30,14.80
2017,08,10,05,31,14.70
2017,08,10,05,32,14.70
2017,08,10,05,33,14.60
2017,08,10,05,34,14.60
2017,08,10,05,35,14.60
2017,08,10,05,36,14.60
2017,08,10,05,37,14.50
2017,08,10,05,38,14.50
2017,08,10,05,39,14.50
2017,08,10,05,40,14.50
2017,08,10,05,41,14.40
2017,08,10,05,42,14.40
2017,08,10,05,43,14.40
2017,08,10,05,44,14.40
2017,08,10,05,45,14.30
2017,08,10,05,46,14.30
2017,08,10,05,47,14.30
2017,08,10,05,48,14.30
2017,08,10,05,49,14.30
2017,08,10,05,50,14.30
2017,08,10,05,51,14.30
2017,08,10,05,52,14.20
2017,08,10,05,53,14.20
2017,08,10,05,54,14.20
2017,08,10,05,55,14.20
2017,08,10,05,56,14.10
2017,08,10,05,57,14.10
2017,08,10,05,58,14.10
2017,08,10,05,59,14.10
2017,08,10,06,00,14.10
2017,08,10,06,01,14.00
2017,08,10,06,02,14.00
2017,08,10,06,03,13.90
2017,08,10,06,04,13.90
2017,08,10,06,05,13.90
2017,08,10,06,06,13.80
2017,08,10,06,07,13.80
2017,08,10,06,08,13.80
2017,08,10,06,09,13.80
2017,08,10,06,10,13.80
2017,08,10,06,11,13.70
2017,08,10,06,12,13.70
2017,08,10,06,13,13.70
2017,08,10,06,14,13.70
2017,08,10,06,15,13.70
2017,08,10,06,16,13.70
2017,08,10,06,17,13.70
2017,08,10,06,18,13.70
2017,08,10,06,19,13.70
2017,08,10,06,20,13.70
2017,08,10,06,21,13.70
2017,08,10,06,22,13.70
2017,08,10,06,23,13.70
2017,08,10,06,24,13.70
2017,08,10,06,25,13.70
2017,08,10,06,26,13.70
2017,08,10,06,27,13.70
2017,08,10,06,28,13.70
2017,08,10,06,29,13.70
2017,08,10,06,30,13.70
2017,08,10,06,31,13.70
2017,08,10,06,32,13.70
2017,08,10,06,33,13.70
2017,08,10,06,34,13.60
2017,08,10,06,35,13.60
2017,08,10,06,36,13.60
2017,08,10,06,37,13.60
2017,08,10,06,38,13.60
2017,08,10,06,39,13.60
2017,08,10,06,40,13.60
2017,08,10,06,41,13.60
2017,08,10,06,42,13.60
2017,08,10,06,43,13.60
2017,08,10,06,44,13.60
2017,08,10,06,45,13.60
2017,08,10,06,46,13.60
2017,08,10,06,47,13.60
2017,08,10,06,48,13.60
2017,08,10,06,49,13.60
2017,08,10,06,50,13.70
2017,08,10,06,51,13.70
2017,08,10,06,52,13.70
2017,08,10,06,53,13.80
2017,08,10,06,54,13.80
2017,08,10,06,55,13.80
2017,08,10,06,56,13.80
2017,08,10,06,57,13.80
2017,08,10,06,58,13.80
2017,08,10,06,59,13.80
2017,08,10,07,00,13.80
2017,08,10,07,01,13.80
2017,08,10,07,02,13.80
2017,08,10,07,03,13.80
2017,08,10,07,04,13.80
2017,08,10,07,05,13.80
2017,08,10,07,06,13.80
2017,08,10,07,07,13.80
2017,08,10,07,08,13.80
2017,08,10,07,09,13.80
2017,08,10,07,10,13.70
2017,08,10,07,11,13.70
2017,08,10,07,12,13.70
2017,08,10,07,13,13.70
2017,08,10,07,14,13.70
2017,08,10,07,15,13.70
2017,08,10,07,16,13.70
2017,08,10,07,17,13.70
2017,08,10,07,18,13.70
2017,08,10,07,19,13.70
2017,08,10,07,20,13.70
2017,08,10,07,21,13.70
2017,08,10,07,22,13.70
2017,08,10,07,23,13.80
2017,08,10,07,24,13.80
2017,08,10,07,25,13.80
2017,08,10,07,26,13.80
2017,08,10,07,27,13.80
2017,08,10,07,28,13.80
2017,08,10,07,29,13.80
2017,08,10,07,30,13.90
2017,08,10,07,31,13.90
2017,08,10,07,32,13.90
2017,08,10,07,33,13.90
2017,08,10,07,34,14.00
2017,08,10,07,35,14.00
2017,08,10,07,36,14.10
2017,08,10,07,37,14.10
2017,08,10,07,38,14.10
2017,08,10,07,39,14.20
2017,08,10,07,40,14.20
2017,08,10,07,41,14.20
2017,08,10,07,42,14.30
2017,08,10,07,43,14.30
2017,08,10,07,44,14.30
2017,08,10,07,45,14.30
2017,08,10,07,46,14.40
2017,08,10,07,47,14.40
2017,08,10,07,48,14.40
2017,08,10,07,49,14.50
2017,08,10,07,50,14.50
2017,08,10,07,51,14.60
2017,08,10,07,52,14.60
2017,08,10,07,53,14.60
2017,08,10,07,54,14.60
2017,08,10,07,55,14.70
2017,08,10,07,56,14.70
2017,08,10,07,57,14.80
2017,08,10,07,58,14.80
2017,08,10,07,59,14.90
2017,08,10,08,00,14.90
2017,08,10,08,01,15.00
2017,08,10,08,02,15.10
2017,08,10,08,03,15.10
2017,08,10,08,04,15.20
2017,08,10,08,05,15.20
2017,08,10,08,06,15.30
2017,08,10,08,07,15.40
2017,08,10,08,08,15.40
2017,08,10,08,09,15.50
2017,08,10,08,10,15.60
2017,08,10,08,11,15.60
2017,08,10,08,12,15.70
2017,08,10,08,13,15.80
2017,08,10,08,14,15.80
2017,08,10,08,15,15.90
2017,08,10,08,16,16.00
2017,08,10,08,17,16.00
2017,08,10,08,18,16.10
2017,08,10,08,19,16.20
2017,08,10,08,20,16.20
2017,08,10,08,21,16.30
2017,08,10,08,22,16.40
2017,08,10,08,23,16.40
2017,08,10,08,24,16.50
2017,08,10,08,25,16.60
2017,08,10,08,26,16.60
2017,08,10,08,27,16.70
2017,08,10,08,28,16.80
2017,08,10,08,29,16.80
2017,08,10,08,30,16.90
2017,08,10,08,31,16.90
2017,08,10,08,32,17.00
2017,08,10,08,33,17.00
2017,08,10,08,34,17.10
2017,08,10,08,35,17.10
2017,08,10,08,36,17.20
2017,08,10,08,37,17.20
2017,08,10,08,38,17.30
2017,08,10,08,39,17.30
2017,08,10,08,40,17.40
2017,08,10,08,41,17.40
2017,08,10,08,42,17.50
2017,08,10,08,43,17.60
2017,08,10,08,44,17.60
2017,08,10,08,45,17.70
2017,08,10,08,46,17.70
2017,08,10,08,47,17.80
2017,08,10,08,48,17.90
2017,08,10,08,49,17.90
2017,08,10,08,50,18.00
2017,08,10,08,51,18.10
2017,08,10,08,52,18.10
2017,08,10,08,53,18.20
2017,08,10,08,54,18.30
2017,08,10,08,55,18.30
2017,08,10,08,56,18.40
2017,08,10,08,57,18.50
2017,08,10,08,58,18.60
2017,08,10,08,59,18.60
2017,08,10,09,00,18.70
2017,08,10,09,01,18.80
2017,08,10,09,02,18.80
2017,08,10,09,03,18.90
2017,08,10,09,04,19.00
2017,08,10,09,05,19.10
2017,08,10,09,06,19.10
2017,08,10,09,07,19.20
2017,08,10,09,08,19.30
2017,08,10,09,09,19.40
2017,08,10,09,10,19.40
2017,08,10,09,11,19.50
2017,08,10,09,12,19.60
2017,08,10,09,13,19.70
2017,08,10,09,14,19.70
2017,08,10,09,15,19.70
2017,08,10,09,16,19.70
2017,08,10,09,17,19.80
2017,08,10,09,18,19.80
2017,08,10,09,19,19.80
2017,08,10,09,20,19.80
2017,08,10,09,21,19.90
2017,08,10,09,22,19.90
2017,08,10,09,23,19.90
2017,08,10,09,24,19.90
2017,08,10,09,25,19.90
2017,08,10,09,26,19.90
2017,08,10,09,27,19.90
2017,08,10,09,28,20.00
2017,08,10,09,29,20.00
2017,08,10,09,30,20.10
2017,08,10,09,31,20.10
2017,08,10,09,32,20.10
2017,08,10,09,33,20.10
2017,08,10,09,34,20.20
2017,08,10,09,35,20.20
2017,08,10,09,36,20.20
2017,08,10,09,37,20.20
2017,08,10,09,38,20.30
2017,08,10,09,39,20.30
2017,08,10,09,40,20.30
2017,08,10,09,41,20.30
2017,08,10,09,42,20.30
2017,08,10,09,43,20.30
2017,08,10,09,44,20.30
2017,08,10,09,45,20.30
2017,08,10,09,46,20.30
2017,08,10,09,47,20.40
2017,08,10,09,48,20.40
2017,08,10,09,49,20.40
2017,08,10,09,50,20.50
2017,08,10,09,51,20.50
2017,08,10,09,52,20.50
2017,08,10,09,53,20.60
2017,08,10,09,54,20.60
2017,08,10,09,55,20.60
2017,08,10,09,56,20.70
2017,08,10,09,57,20.70
2017,08,10,09,58,20.70
2017,08,10,09,59,20.80
2017,08,10,10,00,20.80
2017,08,10,10,01,20.80
2017,08,10,10,02,20.90
2017,08,10,10,03,20.90
2017,08,10,10,04,20.90
2017,08,10,10,05,21.00
2017,08,10,10,06,21.00
2017,08,10,10,07,21.10
2017,08,10,10,08,21.10
2017,08,10,10,09,21.10
2017,08,10,10,10,21.10
2017,08,10,10,11,21.10
2017,08,10,10,12,21.10
2017,08,10,10,13,21.10
2017,08,10,10,14,21.20
2017,08,10,10,15,21.20
2017,08,10,10,16,21.20
2017,08,10,10,17,21.20
2017,08,10,10,18,21.10
2017,08,10,10,19,21.10
2017,08,10,10,20,21.10
2017,08,10,10,21,21.10
2017,08,10,10,22,21.10
2017,08,10,10,23,21.10
2017,08,10,10,24,21.10
2017,08,10,10,25,21.10
2017,08,10,10,26,21.20
2017,08,10,10,27,21.20
2017,08,10,10,28,21.20
2017,08,10,10,29,21.20
2017,08,10,10,30,21.30
2017,08,10,10,31,21.30
2017,08,10,10,32,21.40
2017,08,10,10,33,21.40
2017,08,10,10,34,21.50
2017,08,10,10,35,21.50
2017,08,10,10,36,21.60
2017,08,10,10,37,21.60
2017,08,10,10,38,21.70
2017,08,10,10,39,21.70
2017,08,10,10,40,21.70
2017,08,10,10,41,21.80
2017,08,10,10,42,21.80
2017,08,10,10,43,21.80
2017,08,10,10,44,21.90
2017,08,10,10,45,22.00
2017,08,10,10,46,22.00
2017,08,10,10,47,22.10
2017,08,10,10,48,22.20
2017,08,10,10,49,22.30
2017,08,10,10,50,22.30
2017,08,10,10,51,22.40
2017,08,10,10,52,22.50
2017,08,10,10,53,22.50
2017,08,10,10,54,22.60
2017,08,10,10,55,22.70
2017,08,10,10,56,22.70
2017,08,10,10,57,22.80
2017,08,10,10,58,22.80
2017,08,10,10,59,22.90
2017,08,10,11,00,22.90
2017,08,10,11,01,22.90
2017,08,10,11,02,22.90
2017,08,10,11,03,22.90
2017,08,10,11,04,22.90
2017,08,10,11,05,22.90
2017,08,10,11,06,22.90
2017,08,10,11,07,22.90
2017,08,10,11,08,22.90
2017,08,10,11,09,22.90
2017,08,10,11,10,22.90
2017,08,10,11,11,22.90
2017,08,10,11,12,22.90
2017,08,10,11,13,23.00
2017,08,10,11,14,23.00
2017,08,10,11,15,23.00
2017,08,10,11,16,23.10
2017,08,10,11,17,23.10
2017,08,10,11,18,23.20
2017,08,10,11,19,23.20
2017,08,10,11,20,23.30
2017,08,10,11,21,23.30
2017,08,10,11,22,23.40
2017,08,10,11,23,23.40
2017,08,10,11,24,23.40
2017,08,10,11,25,23.40
2017,08,10,11,26,23.40
2017,08,10,11,27,23.50
2017,08,10,11,28,23.50
2017,08,10,11,29,23.60
2017,08,10,11,30,23.60
2017,08,10,11,31,23.60
2017,08,10,11,32,23.60
2017,08,10,11,33,23.60
2017,08,10,11,34,23.70
2017,08,10,11,35,23.70
2017,08,10,11,36,23.70
2017,08,10,11,37,23.60
2017,08,10,11,38,23.60
2017,08,10,11,39,23.60
2017,08,10,11,40,23.60
2017,08,10,11,41,23.60
2017,08,10,11,42,23.60
2017,08,10,11,43,23.60
2017,08,10,11,44,23.60
2017,08,10,11,45,23.70
2017,08,10,11,46,23.70
2017,08,10,11,47,23.70
2017,08,10,11,48,23.70
2017,08,10,11,49,23.70
2017,08,10,11,50,23.80
2017,08,10,11,51,23.90
2017,08,10,11,52,24.00
2017,08,10,11,53,24.10
2017,08,10,11,54,24.20
2017,08,10,11,55,24.20
2017,08,10,11,56,24.30
2017,08,10,11,57,24.40
2017,08,10,11,58,24.50
2017,08,10,11,59,24.60
2017,08,10,12,00,24.70
2017,08,10,12,01,24.80
2017,08,10,12,02,24.90
2017,08,10,12,03,25.00
2017,08,10,12,04,25.00
2017,08,10,12,05,25.10
2017,08,10,12,06,25.10
2017,08,10,12,07,25.20
2017,08,10,12,08,25.20
2017,08,10,12,09,25.20
2017,08,10,12,10,25.20
2017,08,10,12,11,25.30
2017,08,10,12,12,25.30
2017,08,10,12,13,25.30
2017,08,10,12,14,25.30
2017,08,10,12,15,25.30
2017,08,10,12,16,25.30
2017,08,10,12,17,25.30
2017,08,10,12,18,25.30
2017,08,10,12,19,25.30
2017,08,10,12,20,25.30
2017,08,10,12,21,25.30
2017,08,10,12,22,25.30
2017,08,10,12,23,25.30
2017,08,10,12,24,25.30
2017,08,10,12,25,25.30
2017,08,10,12,26,25.20
2017,08,10,12,27,25.20
2017,08,10,12,28,25.10
2017,08,10,12,29,25.10
2017,08,10,12,30,25.20
2017,08,10,12,31,25.20
2017,08,10,12,32,25.20
2017,08,10,12,33,25.20
2017,08,10,12,34,25.20
2017,08,10,12,35,25.20
2017,08,10,12,36,25.20
2017,08,10,12,37,25.10
2017,08,10,12,38,25.10
2017,08,10,12,39,25.10
2017,08,10,12,40,25.10
2017,08,10,12,41,25.20
2017,08,10,12,42,25.20
2017,08,10,12,43,25.20
2017,08,10,12,44,25.20
2017,08,10,12,45,25.20
2017,08,10,12,46,25.30
2017,08,10,12,47,25.30
2017,08,10,12,48,25.20
2017,08,10,12,49,25.20
2017,08,10,12,50,25.10
2017,08,10,12,51,25.10
2017,08,10,12,52,25.10
2017,08,10,12,53,25.10
2017,08,10,12,54,25.10
2017,08,10,12,55,25.10
2017,08,10,12,56,25.10
2017,08,10,12,57,25.20
2017,08,10,12,58,25.20
2017,08,10,12,59,25.20
2017,08,10,13,00,25.20
2017,08,10,13,01,25.30
2017,08,10,13,02,25.30
2017,08,10,13,03,25.40
2017,08,10,13,04,25.40
2017,08,10,13,05,25.50
2017,08,10,13,06,25.60
2017,08,10,13,07,25.60
2017,08,10,13,08,25.70
2017,08,10,13,09,25.70
2017,08,10,13,10,25.60
2017,08,10,13,11,25.60
2017,08,10,13,12,25.60
2017,08,10,13,13,25.50
2017,08,10,13,14,25.50
2017,08,10,13,15,25.50
2017,08,10,13,16,25.40
2017,08,10,13,17,25.40
2017,08,10,13,18,25.30
2017,08,10,13,19,25.20
2017,08,10,13,20,25.10
2017,08,10,13,21,25.10
2017,08,10,13,22,25.00
2017,08,10,13,23,24.90
2017,08,10,13,24,24.90
2017,08,10,13,25,25.00
2017,08,10,13,26,25.00
2017,08,10,13,27,25.00
2017,08,10,13,28,25.00
2017,08,10,13,29,25.10
2017,08,10,13,30,25.10
2017,08,10,13,31,25.10
2017,08,10,13,32,25.20
2017,08,10,13,33,25.20
2017,08,10,13,34,25.20
2017,08,10,13,35,25.20
2017,08,10,13,36,25.20
2017,08,10,13,37,25.20
2017,08,10,13,38,25.30
2017,08,10,13,39,25.30
2017,08,10,13,40,25.30
2017,08,10,13,41,25.30
2017,08,10,13,42,25.30
2017,08,10,13,43,25.20
2017,08,10,13,44,25.20
2017,08,10,13,45,25.10
2017,08,10,13,46,25.10
2017,08,10,13,47,25.00
2017,08,10,13,48,24.90
2017,08,10,13,49,24.90
2017,08,10,13,50,24.80
2017,08,10,13,51,24.80
2017,08,10,13,52,24.80
2017,08,10,13,53,24.70
2017,08,10,13,54,24.70
2017,08,10,13,55,24.70
2017,08,10,13,56,24.70
2017,08,10,13,57,24.70
2017,08,10,13,58,24.70
2017,08,10,13,59,24.70
2017,08,10,14,00,24.70
2017,08,10,14,01,24.70
2017,08,10,14,02,24.60
2017,08,10,14,03,24.60
2017,08,10,14,04,24.60
2017,08,10,14,05,24.60
2017,08,10,14,06,24.60
2017,08,10,14,07,24.60
2017,08,10,14,08,24.70
2017,08,10,14,09,24.80
2017,08,10,14,10,24.90
2017,08,10,14,11,24.90
2017,08,10,14,12,25.00
2017,08,10,14,13,25.10
2017,08,10,14,14,25.10
2017,08,10,14,15,25.10
2017,08,10,14,16,25.20
2017,08,10,14,17,25.20
2017,08,10,14,18,25.30
2017,08,10,14,19,25.30
2017,08,10,14,20,25.30
2017,08,10,14,21,25.30
2017,08,10,14,22,25.20
2017,08,10,14,23,25.20
2017,08,10,14,24,25.20
2017,08,10,14,25,25.20
2017,08,10,14,26,25.20
2017,08,10,14,27,25.20
2017,08,10,14,28,25.20
2017,08,10,14,29,25.20
2017,08,10,14,30,25.20
2017,08,10,14,31,25.20
2017,08,10,14,32,25.20
2017,08,10,14,33,25.20
2017,08,10,14,34,25.30
2017,08,10,14,35,25.30
2017,08,10,14,36,25.30
2017,08,10,14,37,25.30
2017,08,10,14,38,25.30
2017,08,10,14,39,25.40
2017,08,10,14,40,25.40
2017,08,10,14,41,25.40
2017,08,10,14,42,25.40
2017,08,10,14,43,25.40
2017,08,10,14,44,25.40
2017,08,10,14,45,25.40
2017,08,10,14,46,25.40
2017,08,10,14,47,25.40
2017,08,10,14,48,25.40
2017,08,10,14,49,25.40
2017,08,10,14,50,25.40
2017,08,10,14,51,25.40
2017,08,10,14,52,25.40
2017,08,10,14,53,25.40
2017,08,10,14,54,25.30
2017,08,10,14,55,25.30
2017,08,10,14,56,25.30
2017,08,10,14,57,25.30
2017,08,10,14,58,25.30
2017,08,10,14,59,25.30
2017,08,10,15,00,25.40
2017,08,10,15,01,25.40
2017,08,10,15,02,25.50
2017,08,10,15,03,25.50
2017,08,10,15,04,25.60
2017,08,10,15,05,25.60
2017,08,10,15,06,25.60
2017,08,10,15,07,25.60
2017,08,10,15,08,25.60
2017,08,10,15,09,25.50
2017,08,10,15,10,25.40
2017,08,10,15,11,25.40
2017,08,10,15,12,25.30
2017,08,10,15,13,25.30
2017,08,10,15,14,25.30
2017,08,10,15,15,25.30
2017,08,10,15,16,25.30
2017,08,10,15,17,25.30
2017,08,10,15,18,25.30
2017,08,10,15,19,25.30
2017,08,10,15,20,25.30
2017,08,10,15,21,25.40
2017,08,10,15,22,25.40
2017,08,10,15,23,25.40
2017,08,10,15,24,25.40
2017,08,10,15,25,25.40
2017,08,10,15,26,25.40
2017,08,10,15,27,25.40
2017,08,10,15,28,25.40
2017,08,10,15,29,25.40
2017,08,10,15,30,25.50
2017,08,10,15,31,25.60
2017,08,10,15,32,25.60
2017,08,10,15,33,25.70
2017,08,10,15,34,25.70
2017,08,10,15,35,25.70
2017,08,10,15,36,25.60
2017,08,10,15,37,25.60
2017,08,10,15,38,25.60
2017,08,10,15,39,25.70
2017,08,10,15,40,25.70
2017,08,10,15,41,25.70
2017,08,10,15,42,25.70
2017,08,10,15,43,25.70
2017,08,10,15,44,25.70
2017,08,10,15,45,25.70
2017,08,10,15,46,25.70
2017,08,10,15,47,25.80
2017,08,10,15,48,25.80
2017,08,10,15,49,25.90
2017,08,10,15,50,25.90
2017,08,10,15,51,26.00
2017,08,10,15,52,26.00
2017,08,10,15,53,26.10
2017,08,10,15,54,26.10
2017,08,10,15,55,26.10
2017,08,10,15,56,26.20
2017,08,10,15,57,26.20
2017,08,10,15,58,26.20
2017,08,10,15,59,26.30
2017,08,10,16,00,26.30
2017,08,10,16,01,26.30
2017,08,10,16,02,26.30
2017,08,10,16,03,26.30
2017,08,10,16,04,26.30
2017,08,10,16,05,26.30
2017,08,10,16,06,26.30
2017,08,10,16,07,26.40
2017,08,10,16,08,26.40
2017,08,10,16,09,26.40
2017,08,10,16,10,26.40
2017,08,10,16,11,26.40
2017,08,10,16,12,26.40
2017,08,10,16,13,26.40
2017,08,10,16,14,26.40
2017,08,10,16,15,26.40
2017,08,10,16,16,26.40
2017,08,10,16,17,26.50
2017,08,10,16,18,26.50
2017,08,10,16,19,26.60
2017,08,10,16,20,26.60
2017,08,10,16,21,26.60
2017,08,10,16,22,26.60
2017,08,10,16,23,26.70
2017,08,10,16,24,26.70
2017,08,10,16,25,26.70
2017,08,10,16,26,26.70
2017,08,10,16,27,26.70
2017,08,10,16,28,26.60
2017,08,10,16,29,26.60
2017,08,10,16,30,26.60
2017,08,10,16,31,26.60
2017,08,10,16,32,26.60
2017,08,10,16,33,26.60
2017,08,10,16,34,26.50
2017,08,10,16,35,26.50
2017,08,10,16,36,26.50
2017,08,10,16,37,26.60
2017,08,10,16,38,26.60
2017,08,10,16,39,26.70
2017,08,10,16,40,26.70
2017,08,10,16,41,26.80
2017,08,10,16,42,26.80
2017,08,10,16,43,26.90
2017,08,10,16,44,26.90
2017,08,10,16,45,27.00
2017,08,10,16,46,27.00
2017,08,10,16,47,27.00
2017,08,10,16,48,26.90
2017,08,10,16,49,26.90
2017,08,10,16,50,26.80
2017,08,10,16,51,26.70
2017,08,10,16,52,26.70
2017,08,10,16,53,26.60
2017,08,10,16,54,26.50
2017,08,10,16,55,26.40
2017,08,10,16,56,26.30
2017,08,10,16,57,26.30
2017,08,10,16,58,26.30
2017,08,10,16,59,26.20
2017,08,10,17,00,26.20
2017,08,10,17,01,26.20
2017,08,10,17,02,26.20
2017,08,10,17,03,26.20
2017,08,10,17,04,26.20
2017,08,10,17,05,26.20
2017,08,10,17,06,26.30
2017,08,10,17,07,26.30
2017,08,10,17,08,26.30
2017,08,10,17,09,26.40
2017,08,10,17,10,26.40
2017,08,10,17,11,26.50
2017,08,10,17,12,26.50
2017,08,10,17,13,26.60
2017,08,10,17,14,26.60
2017,08,10,17,15,26.70
2017,08,10,17,16,26.70
2017,08,10,17,17,26.70
2017,08,10,17,18,26.70
2017,08,10,17,19,26.70